Weather History for Cortez, CO

Change the Weather History Date:

Sunday, September 8, 2013

  Actual Average Record
Temperature  
Mean Temperature 68 °F 63 °F  
Max Temperature 78 °F 80 °F 89 °F (1998)
Min Temperature 57 °F 46 °F 36 °F (2001)
Degree Days  
Heating Degree Days 0 3  
Month to date heating degree days 0 17  
Since 1 July heating degree days 0 29  
Cooling Degree Days 3 1  
Month to date cooling degree days 54 11  
Year to date cooling degree days 659 420  
Growing Degree Days 17 (Base 50)    
Moisture  
Dew Point 51 °F    
Average Humidity 59    
Maximum Humidity 77    
Minimum Humidity 40    
Precipitation  
Precipitation T in 0.06 in 0.23 in (2002)
Month to date precipitation 0.01 0.41  
Year to date precipitation 8.13 8.85  
Sea Level Pressure  
Sea Level Pressure 29.90 in    
Wind  
Wind Speed 7 mph (NNW)    
Max Wind Speed 22 mph    
Max Gust Speed 28 mph    
Visibility 10 miles    
Events      
T = Trace of Precipitation, MM = Missing Value Source: NWS Daily Summary

Daily Weather History Graph

Daily Weather History Graph

Search for Another Location

Airport:

Trip Planner

Search our weather history database for the weather conditions in past years. The results will help you decide how hot, cold, wet, or windy it might be!

Date:

Astronomy

Sep. 08, 2013 Rise Set
Actual Time 6:51 AM MDT 7:32 PM MDT
Civil Twilight 6:24 AM MDT 7:58 PM MDT
Nautical Twilight 5:53 AM MDT 8:29 PM MDT
Astronomical Twilight 5:21 AM MDT 9:01 PM MDT
Moon 10:06 AM MDT (9/8) 9:15 PM MDT (9/8)
Length of Visible Light 13h 34m
Length of Day
12h 41m
Waxing Crescent, 11% of the Moon is Illuminated
Sep 8
Waxing Crescent
Sep 12
First Quarter
Sep 19
Full
Sep 26
Last Quarter
Oct 4
New

Hourly Weather History & Observations

Time (MDT) Temp. Dew Point Humidity Pressure Visibility Wind Dir Wind Speed Gust Speed Precip Events Conditions
12:53 AM 64.9 °F 50.0 °F 58% 29.94 in 10.0 mi Calm Calm - N/A   Partly Cloudy
1:53 AM 66.0 °F 50.0 °F 56% 29.93 in 10.0 mi ENE 5.8 mph - N/A   Overcast
2:53 AM 64.9 °F 50.0 °F 58% 29.91 in 10.0 mi NNE 3.5 mph - N/A   Mostly Cloudy
3:53 AM 64.9 °F 51.1 °F 61% 29.91 in 10.0 mi Calm Calm - N/A   Overcast
4:53 AM 62.1 °F 51.1 °F 67% 29.92 in 10.0 mi East 5.8 mph - N/A   Partly Cloudy
5:53 AM 61.0 °F 52.0 °F 72% 29.93 in 10.0 mi NE 3.5 mph - N/A   Clear
6:53 AM 57.9 °F 50.0 °F 75% 29.95 in 10.0 mi East 3.5 mph - N/A   Partly Cloudy
7:53 AM 63.0 °F 51.1 °F 65% 29.97 in 10.0 mi ENE 3.5 mph - N/A   Clear
8:53 AM 66.9 °F 51.1 °F 57% 29.97 in 10.0 mi East 4.6 mph - N/A   Partly Cloudy
9:53 AM 72.0 °F 50.0 °F 46% 29.94 in 10.0 mi NW 3.5 mph - N/A   Overcast
10:53 AM 73.0 °F 50.0 °F 44% 29.93 in 10.0 mi SW 4.6 mph - N/A   Mostly Cloudy
11:53 AM 73.9 °F 48.9 °F 41% 29.94 in 10.0 mi SW 15.0 mph - N/A   Mostly Cloudy
12:53 PM 73.9 °F 51.1 °F 45% 29.93 in 10.0 mi SW 10.4 mph - N/A   Overcast
1:53 PM 75.9 °F 52.0 °F 43% 29.89 in 10.0 mi WNW 19.6 mph 26.5 mph N/A   Scattered Clouds
2:53 PM 77.0 °F 53.1 °F 43% 29.86 in 10.0 mi WNW 16.1 mph 25.3 mph N/A   Scattered Clouds
3:53 PM 77.0 °F 52.0 °F 42% 29.84 in 10.0 mi WNW 15.0 mph 21.9 mph N/A   Clear
4:53 PM 73.9 °F 51.1 °F 45% 29.85 in 10.0 mi WNW 11.5 mph 21.9 mph N/A   Clear
5:53 PM 73.0 °F 50.0 °F 44% 29.87 in 10.0 mi WNW 15.0 mph 20.7 mph N/A   Clear
6:53 PM 72.0 °F 50.0 °F 46% 29.87 in 10.0 mi WNW 17.3 mph 23.0 mph N/A   Clear
7:53 PM 70.0 °F 52.0 °F 53% 29.87 in 10.0 mi NW 4.6 mph - N/A   Scattered Clouds
8:53 PM 66.9 °F 53.1 °F 61% 29.87 in 10.0 mi Calm Calm - 0.00 in   Scattered Clouds
9:53 PM 64.0 °F 53.1 °F 67% 29.87 in 10.0 mi Calm Calm - N/A   Clear
10:53 PM 63.0 °F 52.0 °F 67% 29.88 in 10.0 mi Calm Calm - N/A   Partly Cloudy
11:53 PM 59.0 °F 52.0 °F 78% 29.88 in 10.0 mi East 3.5 mph - N/A   Partly Cloudy